UAE2KA OMDB-HECA

Flight info

Callsign UAE2KA
Flight time 3h 11m
Altitude 34000
Route SENPA2F SENPA N571 ALPOB L768 VATIM/N0487F360 L550 NOVPA N697 MENLI L677 CVO DCT
Aircraft B77W/H-SDE1E2E3FGHIJ2J3J4J5M1RWXY/LB1D1

Departure

Time 2026-04-24 19:07
Airport Dubai International Airport (OMDB)

Arrival

Time 2026-04-24 22:18
Airport Cairo International Airport (HECA)
Time Latitude Longitude Altitude Speed Heading
2026-04-24 18:54 25.25251 55.35735 32 ft 0 kts 301°
2026-04-24 18:57 25.25254 55.35730 32 ft 6 kts 303°
2026-04-24 18:57 25.25322 55.35662 32 ft 15 kts 323°
2026-04-24 18:58 25.25396 55.35583 29 ft 15 kts 306°
2026-04-24 18:58 25.25452 55.35487 31 ft 15 kts 301°
2026-04-24 18:58 25.25515 55.35373 30 ft 19 kts 302°
2026-04-24 18:58 25.25578 55.35261 30 ft 15 kts 302°
2026-04-24 18:59 25.25627 55.35178 31 ft 14 kts 312°
2026-04-24 18:59 25.25724 55.35179 30 ft 15 kts 28°
2026-04-24 18:59 25.25835 55.35251 32 ft 20 kts 32°
2026-04-24 18:59 25.25932 55.35319 26 ft 12 kts 32°
2026-04-24 19:00 25.25974 55.35358 27 ft 0 kts 47°
2026-04-24 19:00 25.25976 55.35360 27 ft 3 kts 47°
2026-04-24 19:00 25.26008 55.35453 27 ft 18 kts 83°
2026-04-24 19:00 25.25974 55.35581 28 ft 18 kts 120°
2026-04-24 19:01 25.25910 55.35699 28 ft 18 kts 122°
2026-04-24 19:01 25.25836 55.35829 28 ft 20 kts 122°
2026-04-24 19:01 25.25762 55.35959 28 ft 19 kts 122°
2026-04-24 19:01 25.25693 55.36084 28 ft 19 kts 122°
2026-04-24 19:02 25.25645 55.36170 29 ft 19 kts 121°
2026-04-24 19:02 25.25550 55.36340 28 ft 22 kts 122°
2026-04-24 19:02 25.25449 55.36518 29 ft 27 kts 122°
2026-04-24 19:02 25.25351 55.36692 28 ft 25 kts 121°
2026-04-24 19:03 25.25261 55.36856 29 ft 25 kts 122°
2026-04-24 19:03 25.25168 55.37018 29 ft 25 kts 122°
2026-04-24 19:03 25.25076 55.37180 30 ft 25 kts 122°
2026-04-24 19:03 25.24985 55.37343 30 ft 25 kts 121°
2026-04-24 19:04 25.24894 55.37507 30 ft 25 kts 121°
2026-04-24 19:04 25.24816 55.37646 30 ft 20 kts 122°
2026-04-24 19:04 25.24744 55.37774 29 ft 20 kts 122°
2026-04-24 19:04 25.24681 55.37885 29 ft 13 kts 119°
2026-04-24 19:05 25.24693 55.37965 30 ft 6 kts 46°
2026-04-24 19:05 25.24714 55.37982 31 ft 6 kts 34°
2026-04-24 19:05 25.24746 55.38005 33 ft 6 kts 32°
2026-04-24 19:05 25.24786 55.38021 34 ft 6 kts
2026-04-24 19:06 25.24822 55.37996 34 ft 7 kts 304°
2026-04-24 19:06 25.24865 55.37920 35 ft 25 kts 301°
2026-04-24 19:06 25.25073 55.37544 37 ft 101 kts 301°
2026-04-24 19:06 25.25592 55.36613 40 ft 180 kts 302°
2026-04-24 19:07 25.26290 55.35382 705 ft 189 kts 303°
2026-04-24 19:07 25.26960 55.34167 1633 ft 189 kts 303°
2026-04-24 19:07 25.27693 55.32839 1896 ft 217 kts 303°
2026-04-24 19:07 25.28536 55.31322 2237 ft 242 kts 303°
2026-04-24 19:08 25.29400 55.29683 2861 ft 252 kts 294°
2026-04-24 19:08 25.29733 55.27756 3515 ft 261 kts 275°
2026-04-24 19:08 25.29864 55.25733 4313 ft 266 kts 276°
2026-04-24 19:08 25.30013 55.23684 5228 ft 269 kts 275°
2026-04-24 19:09 25.30124 55.21609 6124 ft 272 kts 273°
2026-04-24 19:09 25.30224 55.19512 6993 ft 275 kts 273°
2026-04-24 19:09 25.30322 55.17393 7863 ft 277 kts 272°
2026-04-24 19:09 25.30422 55.15254 8714 ft 280 kts 272°
2026-04-24 19:10 25.30525 55.13091 9585 ft 283 kts 272°
2026-04-24 19:10 25.30629 55.10902 10353 ft 289 kts 272°
2026-04-24 19:10 25.30739 55.08608 10719 ft 312 kts 272°
2026-04-24 19:10 25.30858 55.06109 10925 ft 339 kts 272°
2026-04-24 19:11 25.30988 55.03399 11150 ft 364 kts 272°
2026-04-24 19:11 25.31125 55.00560 11785 ft 376 kts 272°
2026-04-24 19:11 25.31266 54.97650 12616 ft 382 kts 272°
2026-04-24 19:11 25.31408 54.94706 13509 ft 386 kts 272°
2026-04-24 19:12 25.31551 54.91727 14347 ft 389 kts 272°
2026-04-24 19:12 25.31693 54.88736 15206 ft 391 kts 272°
2026-04-24 19:12 25.31834 54.85770 16076 ft 393 kts 272°
2026-04-24 19:12 25.31979 54.82705 16938 ft 395 kts 272°
2026-04-24 19:13 25.32074 54.80690 17490 ft 398 kts 272°
2026-04-24 19:13 25.32265 54.76630 18528 ft 402 kts 272°
2026-04-24 19:13 25.32409 54.73530 19230 ft 405 kts 272°
2026-04-24 19:13 25.32554 54.70408 19911 ft 409 kts 272°
2026-04-24 19:14 25.32700 54.67252 20582 ft 413 kts 272°
2026-04-24 19:14 25.32847 54.64063 21263 ft 417 kts 272°
2026-04-24 19:14 25.32994 54.60851 21928 ft 421 kts 272°
2026-04-24 19:14 25.33142 54.57608 22572 ft 425 kts 272°
2026-04-24 19:15 25.33388 54.54338 23206 ft 429 kts 276°
2026-04-24 19:15 25.33907 54.51077 23740 ft 434 kts 282°
2026-04-24 19:15 25.34699 54.47841 24254 ft 438 kts 284°
2026-04-24 19:15 25.35529 54.44589 24780 ft 441 kts 284°
2026-04-24 19:16 25.37202 54.38022 25793 ft 447 kts 284°
2026-04-24 19:16 25.38039 54.34699 26283 ft 450 kts 284°
2026-04-24 19:16 25.38877 54.31351 26786 ft 453 kts 284°
2026-04-24 19:17 25.39717 54.27981 27270 ft 456 kts 284°
2026-04-24 19:17 25.40561 54.24585 27735 ft 459 kts 284°
2026-04-24 19:17 25.41408 54.21170 28178 ft 462 kts 284°
2026-04-24 19:17 25.42260 54.17727 28604 ft 465 kts 284°
2026-04-24 19:18 25.43112 54.14281 29001 ft 468 kts 284°
2026-04-24 19:18 25.43975 54.10789 29376 ft 471 kts 284°
2026-04-24 19:18 25.44842 54.07278 29867 ft 471 kts 284°
2026-04-24 19:18 25.45703 54.03788 30392 ft 469 kts 284°
2026-04-24 19:19 25.46557 54.00324 30963 ft 465 kts 284°
2026-04-24 19:19 25.47403 53.96885 31533 ft 461 kts 284°
2026-04-24 19:19 25.48243 53.93473 32090 ft 458 kts 283°
2026-04-24 19:19 25.49076 53.90078 32601 ft 456 kts 283°
2026-04-24 19:20 25.49895 53.86740 33097 ft 454 kts 283°
2026-04-24 19:20 25.50717 53.83384 33620 ft 451 kts 283°
2026-04-24 19:20 25.51536 53.80039 33909 ft 451 kts 283°
2026-04-24 19:20 25.52356 53.76685 33891 ft 451 kts 283°
2026-04-24 19:21 25.53987 53.70005 33892 ft 448 kts 283°
2026-04-24 19:21 25.55610 53.63337 33899 ft 448 kts 283°
2026-04-24 19:22 25.57232 53.56665 33898 ft 449 kts 283°
2026-04-24 19:22 25.58854 53.49977 33897 ft 450 kts 283°
2026-04-24 19:23 25.60475 53.43278 33905 ft 450 kts 283°
2026-04-24 19:23 25.62094 53.36573 33900 ft 451 kts 283°
2026-04-24 19:24 25.63711 53.29865 33902 ft 451 kts 283°
2026-04-24 19:24 25.65326 53.23150 33901 ft 451 kts 283°
2026-04-24 19:25 25.66935 53.16441 33902 ft 451 kts 283°
2026-04-24 19:25 25.68544 53.09723 33907 ft 450 kts 283°
2026-04-24 19:26 25.70174 53.03027 33906 ft 450 kts 285°
2026-04-24 19:26 25.72514 52.96575 33906 ft 452 kts 292°
2026-04-24 19:27 25.75207 52.90271 33908 ft 452 kts 292°
2026-04-24 19:27 25.77887 52.83969 33906 ft 451 kts 292°
2026-04-24 19:28 25.80544 52.77664 33910 ft 451 kts 292°
2026-04-24 19:28 25.83187 52.71363 33910 ft 450 kts 292°
2026-04-24 19:29 25.87146 52.61899 33916 ft 451 kts 292°
2026-04-24 19:30 25.89784 52.55582 33916 ft 451 kts 292°
2026-04-24 19:30 25.92426 52.49247 33918 ft 452 kts 292°
2026-04-24 19:31 25.95053 52.42939 33921 ft 454 kts 291°
2026-04-24 19:31 25.97703 52.36567 33922 ft 455 kts 291°
2026-04-24 19:32 26.00357 52.30176 33921 ft 456 kts 291°
2026-04-24 19:32 26.03010 52.23778 33919 ft 456 kts 291°
2026-04-24 19:33 26.05662 52.17373 33923 ft 455 kts 291°
2026-04-24 19:33 26.08305 52.10978 33924 ft 455 kts 291°
2026-04-24 19:34 26.10939 52.04598 33914 ft 453 kts 291°
2026-04-24 19:34 26.13563 51.98230 33915 ft 452 kts 291°
2026-04-24 19:35 26.16178 51.91874 33917 ft 451 kts 291°
2026-04-24 19:35 26.18780 51.85541 33924 ft 449 kts 291°
2026-04-24 19:36 26.21374 51.79219 33945 ft 448 kts 291°
2026-04-24 19:36 26.23956 51.72915 33926 ft 447 kts 290°
2026-04-24 19:37 26.26530 51.66619 33933 ft 446 kts 290°
2026-04-24 19:37 26.29082 51.60370 33929 ft 446 kts 290°
2026-04-24 19:38 26.31646 51.54082 33935 ft 446 kts 290°
2026-04-24 19:38 26.34224 51.47749 33934 ft 446 kts 290°
2026-04-24 19:39 26.36785 51.41448 33931 ft 446 kts 290°
2026-04-24 19:39 26.39327 51.35188 33933 ft 446 kts 290°
2026-04-24 19:40 26.41882 51.28884 33933 ft 446 kts 290°
2026-04-24 19:40 26.44433 51.22578 33928 ft 446 kts 290°
2026-04-24 19:41 26.46980 51.16275 33932 ft 445 kts 290°
2026-04-24 19:41 26.49522 51.09975 33934 ft 445 kts 290°
2026-04-24 19:42 26.52061 51.03671 33936 ft 445 kts 290°
2026-04-24 19:42 26.54597 50.97366 33928 ft 445 kts 290°
2026-04-24 19:43 26.57130 50.91058 33930 ft 445 kts 290°
2026-04-24 19:43 26.59660 50.84748 33927 ft 445 kts 290°
2026-04-24 19:44 26.62187 50.78438 33933 ft 445 kts 290°
2026-04-24 19:44 26.64713 50.72119 33937 ft 445 kts 290°
2026-04-24 19:45 26.67236 50.65795 33936 ft 446 kts 290°
2026-04-24 19:45 26.69759 50.59466 33936 ft 446 kts 290°
2026-04-24 19:46 26.72280 50.53130 33936 ft 446 kts 290°
2026-04-24 19:46 26.74796 50.46795 33939 ft 446 kts 290°
2026-04-24 19:47 26.77313 50.40450 33941 ft 446 kts 290°
2026-04-24 19:47 26.79831 50.34090 33943 ft 447 kts 290°
2026-04-24 19:48 26.82348 50.27723 33945 ft 448 kts 290°
2026-04-24 19:48 26.86107 50.18198 33946 ft 448 kts 290°
2026-04-24 19:49 26.91136 50.05421 33945 ft 448 kts 290°
2026-04-24 19:50 26.96149 49.92642 33946 ft 447 kts 289°
2026-04-24 19:51 26.99896 49.83062 33941 ft 447 kts 289°
2026-04-24 19:52 27.03638 49.73473 33942 ft 447 kts 289°
2026-04-24 19:52 27.06131 49.67072 33941 ft 448 kts 289°
2026-04-24 19:53 27.08623 49.60662 33941 ft 449 kts 289°
2026-04-24 19:54 27.12365 49.51019 33942 ft 450 kts 289°
2026-04-24 19:54 27.14442 49.45655 33938 ft 451 kts 289°
2026-04-24 19:55 27.16520 49.40282 33941 ft 451 kts 289°
2026-04-24 19:55 27.19847 49.31668 33945 ft 452 kts 289°
2026-04-24 19:56 27.21924 49.26279 33946 ft 452 kts 289°
2026-04-24 19:56 27.24418 49.19798 33949 ft 452 kts 289°
2026-04-24 19:57 27.26911 49.13310 33949 ft 452 kts 289°
2026-04-24 19:57 27.29398 49.06826 33944 ft 451 kts 289°
2026-04-24 19:58 27.31880 49.00347 33948 ft 451 kts 289°
2026-04-24 19:58 27.34352 48.93880 33949 ft 450 kts 289°
2026-04-24 19:59 27.36819 48.87417 33953 ft 449 kts 289°
2026-04-24 19:59 27.39280 48.80958 33955 ft 449 kts 289°
2026-04-24 20:00 27.41734 48.74508 33956 ft 448 kts 289°
2026-04-24 20:00 27.44182 48.68061 33962 ft 448 kts 289°
2026-04-24 20:01 27.46627 48.61612 33963 ft 448 kts 289°
2026-04-24 20:01 27.49070 48.55158 33959 ft 448 kts 289°
2026-04-24 20:02 27.51514 48.48691 33960 ft 449 kts 288°
2026-04-24 20:02 27.53963 48.42199 33980 ft 450 kts 288°
2026-04-24 20:03 27.56413 48.35694 33979 ft 452 kts 288°
2026-04-24 20:03 27.58865 48.29173 33986 ft 452 kts 288°
2026-04-24 20:04 27.61318 48.22640 33985 ft 453 kts 288°
2026-04-24 20:04 27.63769 48.16100 33993 ft 452 kts 288°
2026-04-24 20:05 27.66214 48.09565 33994 ft 452 kts 288°
2026-04-24 20:05 27.68640 48.03069 34001 ft 452 kts 288°
2026-04-24 20:06 27.71080 47.96523 34001 ft 452 kts 288°
2026-04-24 20:06 27.73517 47.89977 34000 ft 452 kts 288°
2026-04-24 20:07 27.75556 47.84490 34003 ft 452 kts 288°
2026-04-24 20:07 27.78379 47.76881 34004 ft 452 kts 288°
2026-04-24 20:08 27.80802 47.70338 34012 ft 451 kts 287°
2026-04-24 20:08 27.83215 47.63811 34010 ft 450 kts 287°
2026-04-24 20:09 27.85617 47.57301 34011 ft 448 kts 287°
2026-04-24 20:09 27.88011 47.50803 34017 ft 447 kts 287°
2026-04-24 20:10 27.90397 47.44315 34011 ft 446 kts 287°
2026-04-24 20:10 27.92773 47.37843 34014 ft 445 kts 287°
2026-04-24 20:11 27.95126 47.31420 34018 ft 445 kts 287°
2026-04-24 20:11 27.97488 47.24966 34015 ft 444 kts 287°
2026-04-24 20:12 27.99843 47.18518 34015 ft 443 kts 287°
2026-04-24 20:12 28.02194 47.12069 34019 ft 443 kts 287°
2026-04-24 20:13 28.04540 47.05624 34020 ft 443 kts 287°
2026-04-24 20:13 28.06883 46.99176 34017 ft 443 kts 286°
2026-04-24 20:14 28.09225 46.92717 34016 ft 444 kts 286°
2026-04-24 20:14 28.11572 46.86236 34021 ft 445 kts 286°
2026-04-24 20:15 28.13920 46.79739 34014 ft 446 kts 286°
2026-04-24 20:15 28.16274 46.73216 34017 ft 448 kts 286°
2026-04-24 20:16 28.18632 46.66669 34014 ft 449 kts 286°
2026-04-24 20:16 28.20994 46.60102 34010 ft 450 kts 286°
2026-04-24 20:17 28.23356 46.53525 34010 ft 451 kts 285°
2026-04-24 20:17 28.26897 46.43640 34012 ft 451 kts 285°
2026-04-24 20:18 28.29252 46.37052 34018 ft 450 kts 285°
2026-04-24 20:18 28.31599 46.30475 34018 ft 449 kts 284°
2026-04-24 20:19 28.33936 46.23911 34022 ft 448 kts 284°
2026-04-24 20:19 28.36261 46.17371 34020 ft 446 kts 284°
2026-04-24 20:20 28.38560 46.10891 34025 ft 445 kts 284°
2026-04-24 20:20 28.40868 46.04374 34023 ft 444 kts 283°
2026-04-24 20:21 28.43167 45.97871 34019 ft 444 kts 283°
2026-04-24 20:21 28.45464 45.91359 34009 ft 444 kts 283°
2026-04-24 20:22 28.47759 45.84844 34009 ft 444 kts 283°
2026-04-24 20:22 28.50052 45.78323 34007 ft 445 kts 283°
2026-04-24 20:23 28.52347 45.71784 34000 ft 445 kts 283°
2026-04-24 20:23 28.54641 45.65237 33984 ft 446 kts 283°
2026-04-24 20:24 28.56932 45.58689 33991 ft 445 kts 283°
2026-04-24 20:24 28.59219 45.52138 33991 ft 445 kts 283°
2026-04-24 20:25 28.61501 45.45592 33990 ft 445 kts 283°
2026-04-24 20:25 28.63780 45.39043 33990 ft 445 kts 283°
2026-04-24 20:26 28.66052 45.32500 33987 ft 444 kts 283°
2026-04-24 20:26 28.68317 45.25964 33983 ft 443 kts 283°
2026-04-24 20:27 28.70576 45.19437 33985 ft 443 kts 283°
2026-04-24 20:27 28.72828 45.12915 33984 ft 442 kts 283°
2026-04-24 20:28 28.75076 45.06394 33985 ft 442 kts 283°
2026-04-24 20:28 28.77316 44.99882 33981 ft 441 kts 283°
2026-04-24 20:29 28.79555 44.93364 33978 ft 441 kts 282°
2026-04-24 20:29 28.81774 44.86889 33975 ft 442 kts 282°
2026-04-24 20:30 28.84023 44.80319 33982 ft 442 kts 282°
2026-04-24 20:30 28.85948 44.73768 33971 ft 434 kts 276°
2026-04-24 20:31 28.86948 44.67057 33980 ft 428 kts 270°
2026-04-24 20:31 28.87727 44.60318 33977 ft 429 kts 270°
2026-04-24 20:32 28.88515 44.53563 33975 ft 430 kts 270°
2026-04-24 20:32 28.89313 44.46800 33970 ft 431 kts 270°
2026-04-24 20:33 28.90114 44.40021 33969 ft 431 kts 270°
2026-04-24 20:33 28.90913 44.33244 33969 ft 431 kts 270°
2026-04-24 20:34 28.91709 44.26464 33969 ft 431 kts 270°
2026-04-24 20:34 28.92502 44.19674 33966 ft 431 kts 270°
2026-04-24 20:35 28.93290 44.12887 33967 ft 431 kts 270°
2026-04-24 20:35 28.94076 44.06095 33963 ft 432 kts 270°
2026-04-24 20:36 28.94859 43.99295 33961 ft 432 kts 270°
2026-04-24 20:36 28.95639 43.92486 33961 ft 433 kts 270°
2026-04-24 20:37 28.96418 43.85661 33960 ft 434 kts 270°
2026-04-24 20:37 28.97196 43.78817 33964 ft 435 kts 270°
2026-04-24 20:38 28.97971 43.71963 33961 ft 436 kts 270°
2026-04-24 20:38 28.98743 43.65099 33959 ft 436 kts 270°
2026-04-24 20:39 28.99515 43.58216 33949 ft 437 kts 270°
2026-04-24 20:39 29.00282 43.51331 33964 ft 437 kts 270°
2026-04-24 20:40 29.01048 43.44435 33955 ft 438 kts 269°
2026-04-24 20:40 29.01810 43.37539 33956 ft 437 kts 269°
2026-04-24 20:41 29.02569 43.30644 33954 ft 437 kts 269°
2026-04-24 20:41 29.03317 43.23806 33953 ft 437 kts 269°
2026-04-24 20:42 29.04066 43.16921 33958 ft 436 kts 269°
2026-04-24 20:42 29.04812 43.10040 33955 ft 436 kts 269°
2026-04-24 20:43 29.05553 43.03166 33954 ft 436 kts 269°
2026-04-24 20:43 29.06292 42.96283 33970 ft 436 kts 269°
2026-04-24 20:44 29.07026 42.89403 33962 ft 436 kts 269°
2026-04-24 20:44 29.07640 42.83634 33962 ft 436 kts 269°
2026-04-24 20:45 29.08364 42.76792 33960 ft 436 kts 269°
2026-04-24 20:45 29.09089 42.69906 33965 ft 436 kts 269°
2026-04-24 20:46 29.09811 42.63020 33962 ft 436 kts 269°
2026-04-24 20:46 29.10528 42.56134 33963 ft 436 kts 269°
2026-04-24 20:47 29.11242 42.49249 33963 ft 435 kts 269°
2026-04-24 20:47 29.11951 42.42381 33957 ft 434 kts 269°
2026-04-24 20:48 29.12655 42.35533 33952 ft 433 kts 268°
2026-04-24 20:48 29.13353 42.28702 33955 ft 432 kts 268°
2026-04-24 20:49 29.14045 42.21891 33953 ft 430 kts 268°
2026-04-24 20:49 29.14733 42.15093 33948 ft 429 kts 268°
2026-04-24 20:50 29.15414 42.08321 33951 ft 428 kts 268°
2026-04-24 20:50 29.16091 42.01554 33956 ft 428 kts 268°
2026-04-24 20:51 29.16763 41.94801 33954 ft 427 kts 268°
2026-04-24 20:51 29.17432 41.88051 33957 ft 427 kts 268°
2026-04-24 20:52 29.18095 41.81313 33945 ft 426 kts 268°
2026-04-24 20:52 29.18755 41.74580 33962 ft 426 kts 268°
2026-04-24 20:53 29.19411 41.67835 33959 ft 427 kts 268°
2026-04-24 20:53 29.20066 41.61081 33958 ft 427 kts 268°
2026-04-24 20:54 29.20719 41.54316 33953 ft 428 kts 268°
2026-04-24 20:54 29.21370 41.47527 33950 ft 429 kts 269°
2026-04-24 20:55 29.22019 41.40733 33949 ft 430 kts 269°
2026-04-24 20:55 29.22665 41.33927 33948 ft 430 kts 269°
2026-04-24 20:56 29.23309 41.27112 33950 ft 431 kts 269°
2026-04-24 20:56 29.23949 41.20295 33941 ft 430 kts 269°
2026-04-24 20:57 29.24585 41.13486 33940 ft 430 kts 269°
2026-04-24 20:57 29.25213 41.06727 33939 ft 429 kts 269°
2026-04-24 20:58 29.25841 40.99929 33938 ft 429 kts 269°
2026-04-24 20:58 29.26463 40.93141 33934 ft 429 kts 269°
2026-04-24 20:59 29.27083 40.86346 33924 ft 429 kts 269°
2026-04-24 20:59 29.27701 40.79549 33922 ft 429 kts 269°
2026-04-24 21:00 29.28314 40.72754 33922 ft 429 kts 269°
2026-04-24 21:00 29.28929 40.65907 33915 ft 429 kts 270°
2026-04-24 21:01 29.29535 40.59102 33915 ft 430 kts 270°
2026-04-24 21:01 29.30136 40.52332 33913 ft 430 kts 270°
2026-04-24 21:02 29.30737 40.45513 33906 ft 431 kts 270°
2026-04-24 21:02 29.31336 40.38688 33901 ft 431 kts 270°
2026-04-24 21:03 29.31932 40.31848 33897 ft 431 kts 270°
2026-04-24 21:03 29.32525 40.25005 33898 ft 432 kts 270°
2026-04-24 21:04 29.33115 40.18149 33884 ft 432 kts 270°
2026-04-24 21:04 29.33703 40.11289 33886 ft 433 kts 270°
2026-04-24 21:05 29.34287 40.04425 33883 ft 433 kts 270°
2026-04-24 21:05 29.34868 39.97550 33880 ft 434 kts 270°
2026-04-24 21:06 29.35447 39.90666 33882 ft 434 kts 270°
2026-04-24 21:06 29.36022 39.83776 33875 ft 435 kts 270°
2026-04-24 21:07 29.36595 39.76875 33876 ft 435 kts 270°
2026-04-24 21:07 29.37164 39.69966 33876 ft 436 kts 270°
2026-04-24 21:08 29.37727 39.63097 33883 ft 436 kts 270°
2026-04-24 21:08 29.38291 39.56176 33866 ft 436 kts 270°
2026-04-24 21:09 29.38852 39.49249 33866 ft 437 kts 270°
2026-04-24 21:09 29.39409 39.42313 33873 ft 437 kts 270°
2026-04-24 21:10 29.39962 39.35374 33875 ft 437 kts 270°
2026-04-24 21:10 29.40514 39.28432 33870 ft 438 kts 270°
2026-04-24 21:11 29.41062 39.21477 33875 ft 438 kts 270°
2026-04-24 21:11 29.41605 39.14520 33873 ft 438 kts 270°
2026-04-24 21:12 29.42056 39.08731 33873 ft 439 kts 270°
2026-04-24 21:12 29.42686 39.00576 33874 ft 439 kts 270°
2026-04-24 21:13 29.43222 38.93589 33867 ft 440 kts 270°
2026-04-24 21:13 29.43754 38.86595 33857 ft 441 kts 270°
2026-04-24 21:14 29.44283 38.79589 33863 ft 441 kts 270°
2026-04-24 21:14 29.44807 38.72625 33855 ft 441 kts 270°
2026-04-24 21:15 29.45329 38.65611 33861 ft 441 kts 270°
2026-04-24 21:15 29.45849 38.58596 33855 ft 442 kts 270°
2026-04-24 21:16 29.46365 38.51570 33851 ft 442 kts 270°
2026-04-24 21:16 29.46878 38.44538 33858 ft 442 kts 270°
2026-04-24 21:17 29.47388 38.37504 33861 ft 443 kts 270°
2026-04-24 21:17 29.47812 38.31605 33857 ft 443 kts 270°
2026-04-24 21:18 29.48397 38.23412 33860 ft 443 kts 270°
2026-04-24 21:18 29.48896 38.16359 33852 ft 443 kts 270°
2026-04-24 21:19 29.49392 38.09306 33859 ft 443 kts 271°
2026-04-24 21:19 29.49884 38.02253 33863 ft 443 kts 271°
2026-04-24 21:20 29.50615 37.91673 33865 ft 443 kts 271°
2026-04-24 21:21 29.51098 37.84615 33868 ft 443 kts 271°
2026-04-24 21:21 29.51577 37.77559 33875 ft 443 kts 271°
2026-04-24 21:22 29.52052 37.70503 33881 ft 443 kts 271°
2026-04-24 21:22 29.52524 37.63437 33873 ft 444 kts 271°
2026-04-24 21:23 29.52992 37.56385 33887 ft 444 kts 271°
2026-04-24 21:23 29.53455 37.49336 33889 ft 445 kts 271°
2026-04-24 21:24 29.53918 37.42238 33883 ft 447 kts 271°
2026-04-24 21:24 29.54378 37.35116 33893 ft 448 kts 271°
2026-04-24 21:25 29.54837 37.27960 33890 ft 450 kts 271°
2026-04-24 21:25 29.55293 37.20789 33900 ft 451 kts 271°
2026-04-24 21:26 29.55746 37.13606 33884 ft 451 kts 271°
2026-04-24 21:26 29.56195 37.06423 33879 ft 450 kts 271°
2026-04-24 21:27 29.56639 36.99257 33873 ft 449 kts 271°
2026-04-24 21:27 29.57079 36.92101 33866 ft 449 kts 271°
2026-04-24 21:28 29.57514 36.84959 33873 ft 448 kts 271°
2026-04-24 21:28 29.57945 36.77806 33864 ft 449 kts 271°
2026-04-24 21:29 29.58373 36.70656 33850 ft 449 kts 271°
2026-04-24 21:29 29.58797 36.63499 33853 ft 449 kts 271°
2026-04-24 21:30 29.59218 36.56328 33851 ft 450 kts 271°
2026-04-24 21:30 29.59635 36.49149 33844 ft 451 kts 271°
2026-04-24 21:31 29.60050 36.41955 33839 ft 452 kts 271°
2026-04-24 21:31 29.60459 36.34790 33839 ft 452 kts 271°
2026-04-24 21:32 29.60866 36.27576 33841 ft 453 kts 271°
2026-04-24 21:32 29.61271 36.20351 33841 ft 453 kts 271°
2026-04-24 21:33 29.61672 36.13118 33843 ft 454 kts 271°
2026-04-24 21:33 29.62069 36.05887 33847 ft 454 kts 271°
2026-04-24 21:34 29.62397 35.99870 33845 ft 454 kts 271°
2026-04-24 21:34 29.62787 35.92624 33851 ft 454 kts 271°
2026-04-24 21:35 29.63174 35.85375 33853 ft 454 kts 271°
2026-04-24 21:35 29.63557 35.78127 33861 ft 455 kts 271°
2026-04-24 21:36 29.63936 35.70871 33860 ft 455 kts 271°
2026-04-24 21:36 29.64311 35.63613 33873 ft 455 kts 271°
2026-04-24 21:37 29.64683 35.56349 33871 ft 455 kts 271°
2026-04-24 21:37 29.65050 35.49094 33867 ft 455 kts 271°
2026-04-24 21:38 29.65413 35.41831 33866 ft 455 kts 271°
2026-04-24 21:38 29.65772 35.34576 33863 ft 455 kts 271°
2026-04-24 21:39 29.66129 35.27320 33855 ft 455 kts 271°
2026-04-24 21:39 29.66476 35.20110 33854 ft 454 kts 271°
2026-04-24 21:40 29.66824 35.12858 33854 ft 454 kts 271°
2026-04-24 21:40 29.67167 35.05604 33861 ft 455 kts 271°
2026-04-24 21:41 29.67507 34.98345 33856 ft 455 kts 271°
2026-04-24 21:41 29.67843 34.91077 33861 ft 455 kts 271°
2026-04-24 21:42 29.68175 34.83813 33862 ft 455 kts 271°
2026-04-24 21:42 29.68503 34.76548 33862 ft 455 kts 271°
2026-04-24 21:43 29.68827 34.69278 33868 ft 455 kts 271°
2026-04-24 21:43 29.69147 34.62009 33876 ft 455 kts 271°
2026-04-24 21:44 29.69463 34.54747 33880 ft 455 kts 270°
2026-04-24 21:44 29.69775 34.47478 33891 ft 455 kts 270°
2026-04-24 21:45 29.70083 34.40214 33884 ft 455 kts 270°
2026-04-24 21:45 29.70387 34.32945 33897 ft 455 kts 270°
2026-04-24 21:46 29.70687 34.25681 33893 ft 455 kts 270°
2026-04-24 21:46 29.70983 34.18409 33895 ft 455 kts 270°
2026-04-24 21:47 29.71275 34.11145 33901 ft 454 kts 270°
2026-04-24 21:47 29.71563 34.03896 33900 ft 453 kts 269°
2026-04-24 21:48 29.71846 33.96669 33902 ft 452 kts 269°
2026-04-24 21:48 29.72122 33.89512 33902 ft 450 kts 269°
2026-04-24 21:49 29.72395 33.82339 33899 ft 448 kts 269°
2026-04-24 21:49 29.72662 33.75189 33900 ft 446 kts 269°
2026-04-24 21:50 29.72926 33.68068 33891 ft 445 kts 269°
2026-04-24 21:50 29.73184 33.60972 33889 ft 443 kts 269°
2026-04-24 21:51 29.73438 33.53890 33892 ft 442 kts 269°
2026-04-24 21:51 29.73687 33.46833 33893 ft 441 kts 269°
2026-04-24 21:52 29.73932 33.39791 33882 ft 440 kts 269°
2026-04-24 21:52 29.74173 33.32762 33885 ft 439 kts 269°
2026-04-24 21:53 29.74410 33.25736 33879 ft 440 kts 269°
2026-04-24 21:53 29.74643 33.18705 33864 ft 437 kts 269°
2026-04-24 21:54 29.74870 33.11817 33072 ft 429 kts 269°
2026-04-24 21:54 29.74981 33.08394 32388 ft 428 kts 269°
2026-04-24 21:54 29.75090 33.04986 31844 ft 425 kts 269°
2026-04-24 21:54 29.75197 33.01598 31246 ft 423 kts 269°
2026-04-24 21:55 29.75304 32.98223 30682 ft 421 kts 269°
2026-04-24 21:55 29.75411 32.94856 30123 ft 420 kts 268°
2026-04-24 21:55 29.75515 32.91492 29487 ft 420 kts 268°
2026-04-24 21:55 29.75617 32.88122 28857 ft 423 kts 268°
2026-04-24 21:56 29.75717 32.84762 28250 ft 427 kts 268°
2026-04-24 21:56 29.75819 32.81347 27636 ft 426 kts 269°
2026-04-24 21:56 29.75921 32.77953 27042 ft 423 kts 269°
2026-04-24 21:56 29.76024 32.74535 26447 ft 420 kts 269°
2026-04-24 21:57 29.76122 32.71234 25874 ft 417 kts 269°
2026-04-24 21:57 29.76222 32.67862 25298 ft 414 kts 269°
2026-04-24 21:57 29.76317 32.64564 24732 ft 411 kts 269°
2026-04-24 21:57 29.76411 32.61325 24173 ft 409 kts 269°
2026-04-24 21:58 29.76503 32.58063 23605 ft 407 kts 270°
2026-04-24 21:58 29.76595 32.54810 22971 ft 405 kts 270°
2026-04-24 21:58 29.76686 32.51581 22379 ft 402 kts 270°
2026-04-24 21:58 29.76775 32.48382 21816 ft 398 kts 269°
2026-04-24 21:59 29.76863 32.45210 21278 ft 395 kts 269°
2026-04-24 21:59 29.76949 32.42061 20744 ft 392 kts 269°
2026-04-24 21:59 29.77033 32.38948 20228 ft 389 kts 269°
2026-04-24 21:59 29.77116 32.35836 19701 ft 387 kts 269°
2026-04-24 22:00 29.77198 32.32750 19184 ft 385 kts 269°
2026-04-24 22:00 29.77279 32.29683 18670 ft 383 kts 269°
2026-04-24 22:00 29.77358 32.26627 18139 ft 381 kts 269°
2026-04-24 22:00 29.77437 32.23580 17546 ft 380 kts 269°
2026-04-24 22:01 29.77515 32.20554 17001 ft 377 kts 269°
2026-04-24 22:01 29.77591 32.17549 16474 ft 374 kts 269°
2026-04-24 22:01 29.77667 32.14562 15949 ft 372 kts 269°
2026-04-24 22:01 29.77741 32.11600 15445 ft 369 kts 269°
2026-04-24 22:02 29.77814 32.08654 14939 ft 367 kts 269°
2026-04-24 22:02 29.77886 32.05724 14443 ft 365 kts 269°
2026-04-24 22:02 29.77957 32.02807 13942 ft 364 kts 269°
2026-04-24 22:02 29.78026 31.99904 13409 ft 363 kts 269°
2026-04-24 22:03 29.78095 31.97007 12863 ft 361 kts 269°
2026-04-24 22:03 29.78164 31.94123 12358 ft 359 kts 269°
2026-04-24 22:03 29.78231 31.91261 11855 ft 357 kts 269°
2026-04-24 22:03 29.78362 31.88420 11361 ft 355 kts 275°
2026-04-24 22:04 29.78810 31.85627 10878 ft 355 kts 282°
2026-04-24 22:04 29.79547 31.82937 10618 ft 347 kts 289°
2026-04-24 22:04 29.80382 31.80379 10455 ft 336 kts 289°
2026-04-24 22:04 29.81188 31.77904 10292 ft 320 kts 289°
2026-04-24 22:05 29.81932 31.75623 10137 ft 290 kts 289°
2026-04-24 22:05 29.82609 31.73535 10043 ft 277 kts 288°
2026-04-24 22:05 29.83269 31.71489 9945 ft 268 kts 288°
2026-04-24 22:05 29.83911 31.69491 9681 ft 266 kts 288°
2026-04-24 22:06 29.84555 31.67484 9369 ft 268 kts 288°
2026-04-24 22:06 29.85202 31.65460 9059 ft 270 kts 288°
2026-04-24 22:06 29.85853 31.63425 8735 ft 271 kts 289°
2026-04-24 22:06 29.86505 31.61388 8411 ft 271 kts 289°
2026-04-24 22:07 29.87155 31.59355 8092 ft 270 kts 289°
2026-04-24 22:07 29.87805 31.57321 7780 ft 270 kts 289°
2026-04-24 22:07 29.88452 31.55294 7461 ft 269 kts 290°
2026-04-24 22:07 29.88860 31.53231 7127 ft 263 kts 272°
2026-04-24 22:08 29.88797 31.51128 6848 ft 262 kts 266°
2026-04-24 22:08 29.88631 31.49035 6557 ft 262 kts 265°
2026-04-24 22:08 29.88441 31.46949 6256 ft 259 kts 265°
2026-04-24 22:08 29.88249 31.44950 5956 ft 243 kts 265°
2026-04-24 22:09 29.88064 31.43110 5862 ft 224 kts 265°
2026-04-24 22:09 29.87872 31.41246 5604 ft 239 kts 265°
2026-04-24 22:09 29.87672 31.39360 5393 ft 234 kts 264°
2026-04-24 22:09 29.87476 31.37562 5348 ft 222 kts 265°
2026-04-24 22:10 29.87279 31.35798 5113 ft 218 kts 265°
2026-04-24 22:10 29.87086 31.34087 5031 ft 220 kts 265°
2026-04-24 22:10 29.86888 31.32337 5046 ft 221 kts 265°
2026-04-24 22:10 29.86817 31.30569 5028 ft 222 kts 281°
2026-04-24 22:11 29.87405 31.28984 4996 ft 216 kts 319°
2026-04-24 22:11 29.88699 31.28140 4850 ft 219 kts 343°
2026-04-24 22:11 29.90156 31.27569 4568 ft 223 kts 343°
2026-04-24 22:11 29.91616 31.26990 4289 ft 220 kts 343°
2026-04-24 22:12 29.93048 31.26418 4078 ft 214 kts 343°
2026-04-24 22:12 29.94409 31.25871 3937 ft 198 kts 343°
2026-04-24 22:12 29.95631 31.25377 3857 ft 179 kts 343°
2026-04-24 22:12 29.96788 31.24946 3772 ft 174 kts 353°
2026-04-24 22:13 29.97969 31.25056 3709 ft 170 kts 15°
2026-04-24 22:13 29.99153 31.25223 3531 ft 177 kts
2026-04-24 22:13 30.00237 31.25805 3302 ft 174 kts 51°
2026-04-24 22:13 30.00853 31.26979 3155 ft 170 kts 56°
2026-04-24 22:14 30.01507 31.28069 2907 ft 158 kts 53°
2026-04-24 22:14 30.02128 31.29017 2737 ft 141 kts 51°
2026-04-24 22:14 30.02719 31.29881 2566 ft 135 kts 52°
2026-04-24 22:14 30.03304 31.30737 2398 ft 136 kts 52°
2026-04-24 22:15 30.03888 31.31574 2203 ft 132 kts 51°
2026-04-24 22:15 30.04434 31.32415 2093 ft 130 kts 52°
2026-04-24 22:15 30.05010 31.33243 2057 ft 134 kts 51°
2026-04-24 22:15 30.05617 31.34065 1987 ft 136 kts 50°
2026-04-24 22:16 30.06238 31.34888 1784 ft 135 kts 49°
2026-04-24 22:16 30.06881 31.35667 1483 ft 133 kts 49°
2026-04-24 22:16 30.07484 31.36473 1220 ft 131 kts 51°
2026-04-24 22:16 30.08062 31.37277 1011 ft 130 kts 49°
2026-04-24 22:17 30.08660 31.38079 816 ft 133 kts 49°
2026-04-24 22:17 30.09268 31.38886 631 ft 132 kts 48°
2026-04-24 22:17 30.09855 31.39662 454 ft 124 kts 48°
2026-04-24 22:17 30.10398 31.40390 383 ft 113 kts 49°
2026-04-24 22:18 30.10829 31.40967 376 ft 73 kts 49°
2026-04-24 22:18 30.11063 31.41278 380 ft 38 kts 49°
2026-04-24 22:18 30.11243 31.41497 378 ft 36 kts 39°
2026-04-24 22:18 30.11375 31.41583 379 ft 13 kts 19°
2026-04-24 22:19 30.11440 31.41609 379 ft 10 kts 19°
2026-04-24 22:19 30.11506 31.41627 379 ft 10 kts
2026-04-24 22:19 30.11554 31.41581 379 ft 10 kts 277°
2026-04-24 22:19 30.11530 31.41505 379 ft 11 kts 229°
2026-04-24 22:20 30.11478 31.41439 379 ft 11 kts 229°
2026-04-24 22:20 30.11391 31.41319 379 ft 28 kts 230°
2026-04-24 22:20 30.11294 31.41191 379 ft 19 kts 229°
2026-04-24 22:20 30.11207 31.41078 379 ft 20 kts 229°
2026-04-24 22:21 30.11114 31.40954 379 ft 21 kts 229°
2026-04-24 22:21 30.11074 31.40824 379 ft 18 kts 286°
2026-04-24 22:21 30.11040 31.40696 379 ft 18 kts 231°
2026-04-24 22:21 30.10961 31.40590 379 ft 15 kts 229°
2026-04-24 22:22 30.10922 31.40481 379 ft 13 kts 275°
2026-04-24 22:22 30.10928 31.40452 379 ft 1 kts 286°
2026-04-24 22:22 30.10934 31.40426 379 ft 5 kts 286°
2026-04-24 22:22 30.10949 31.40393 379 ft 4 kts 326°
2026-04-24 22:23 30.10977 31.40402 379 ft 4 kts 21°
2026-04-24 22:23 30.11000 31.40411 379 ft 3 kts 18°
2026-04-24 22:23 30.11019 31.40419 379 ft 2 kts 18°
2026-04-24 22:23 30.11027 31.40422 379 ft 0 kts 18°